Worland, WY

1:52 AM MDT on September 30, 2016 (GMT -0600)
Worland Municipal

Weather History for KWRL - September, 2012

Change the Weather History Date:

Wednesday, September 19, 2012

  Actual Average Record
Temperature  
Mean Temperature 62 °F 57 °F  
Max Temperature 78 °F 73 °F 93 °F (1981)
Min Temperature 45 °F 41 °F 26 °F (1965)
Degree Days  
Heating Degree Days 3 9  
Month to date heating degree days 56 99  
Since 1 July heating degree days 57 135  
Cooling Degree Days 0 0  
Month to date cooling degree days 28 28  
Year to date cooling degree days 901 534  
Growing Degree Days 11 (Base 50)    
Moisture  
Dew Point 26 °F    
Average Humidity 30    
Maximum Humidity 46    
Minimum Humidity 14    
Precipitation  
Precipitation 0.00 in 0.03 in 0.39 in (1985)
Month to date precipitation T 0.49  
Year to date precipitation 1.79 5.94  
Sea Level Pressure  
Sea Level Pressure 30.06 in    
Wind  
Wind Speed 4 mph (ENE)    
Max Wind Speed 10 mph    
Max Gust Speed 14 mph    
Visibility 10 miles    
Events      
T = Trace of Precipitation, MM = Missing Value Source: NWS Daily Summary

Daily Weather History Graph

Daily Weather History Graph

Search for Another Location

Airport or City:

Trip Planner

Search our weather history database for the weather conditions in past years. The results will help you decide how hot, cold, wet, or windy it might be!

Date:

Astronomy

Sep. 19, 2012 Rise Set
Actual Time 6:56 AM MDT 7:13 PM MDT
Civil Twilight 6:27 AM MDT 7:42 PM MDT
Nautical Twilight 5:53 AM MDT 8:16 PM MDT
Astronomical Twilight 5:18 AM MDT 8:51 PM MDT
Moon 11:20 AM MDT (9/19) 9:14 PM MDT (9/19)
Length of Visible Light 13h 15m
Length of Day
12h 17m
Waxing Crescent, 17% of the Moon is Illuminated
Sep 19
Waxing Crescent
Sep 22
First Quarter
Sep 29
Full
Oct 8
Last Quarter
Oct 15
New

Hourly Weather History & Observations

Time (MDT) Temp. Windchill Dew Point Humidity Pressure Visibility Wind Dir Wind Speed Gust Speed Precip Events Conditions
12:53 AM 53.1 °F - 26.1 °F 35% 29.95 in 10.0 mi Variable 3.5 mph - N/A   Clear
1:53 AM 50.0 °F - 24.1 °F 36% 29.98 in 10.0 mi Calm Calm - N/A   Clear
2:53 AM 48.9 °F - 28.0 °F 44% 29.99 in 10.0 mi SSE 3.5 mph - N/A   Clear
3:53 AM 48.9 °F - 27.0 °F 43% 30.00 in 10.0 mi South 8.1 mph - N/A   Clear
4:53 AM 46.9 °F - 25.0 °F 42% 30.02 in 9.0 mi Calm Calm - N/A   Clear
5:53 AM 48.9 °F - 24.1 °F 38% 30.04 in 9.0 mi ENE 3.5 mph - N/A   Clear
6:53 AM 45.0 °F 42.6 °F 25.0 °F 46% 30.09 in 9.0 mi South 4.6 mph - N/A   Clear
7:53 AM 55.0 °F - 25.0 °F 31% 30.12 in 9.0 mi NNW 3.5 mph - N/A   Clear
8:53 AM 61.0 °F - 28.0 °F 29% 30.14 in 10.0 mi NE 4.6 mph - N/A   Clear
9:53 AM 63.0 °F - 28.9 °F 28% 30.16 in 10.0 mi East 4.6 mph - N/A   Clear
10:53 AM 66.9 °F - 28.0 °F 23% 30.16 in 10.0 mi NE 4.6 mph - N/A   Clear
11:53 AM 69.1 °F - 28.0 °F 22% 30.15 in 10.0 mi NE 5.8 mph - N/A   Clear
12:53 PM 70.0 °F - 28.0 °F 21% 30.13 in 10.0 mi Calm Calm - N/A   Clear
1:53 PM 73.0 °F - 28.9 °F 20% 30.10 in 10.0 mi NNE 8.1 mph - N/A   Clear
2:53 PM 75.0 °F - 28.0 °F 18% 30.07 in 10.0 mi Variable 4.6 mph - N/A   Clear
3:53 PM 77.0 °F - 24.1 °F 14% 30.04 in 10.0 mi Calm Calm - N/A   Clear
4:53 PM 77.0 °F - 26.1 °F 15% 30.03 in 10.0 mi NNE 6.9 mph - N/A   Clear
5:53 PM 75.0 °F - 30.9 °F 20% 30.02 in 9.0 mi North 5.8 mph - N/A   Clear
6:53 PM 71.6 °F - 28.4 °F 20% 30.10 in 9.0 mi Calm Calm - N/A   Clear
7:53 PM 63.0 °F - 28.0 °F 27% 30.04 in 10.0 mi NNE 3.5 mph - N/A   Clear
8:53 PM 61.0 °F - 26.1 °F 26% 30.04 in 10.0 mi Calm Calm - N/A   Clear
9:53 PM 55.9 °F - 24.1 °F 29% 30.05 in 10.0 mi Calm Calm - N/A   Clear
10:53 PM 55.9 °F - 21.9 °F 27% 30.06 in 10.0 mi Calm Calm - N/A   Clear
11:53 PM 55.0 °F - 23.0 °F 29% 30.05 in 10.0 mi South 10.4 mph - N/A   Clear